RH
24 25 24 28 28 27 27 26 30 19 16 14 34 40 51 47 49 52 59 59 59 59 60 64 69 73 76 84 92 100 99 100 100 99 100 100 100 100 98 100 100 100 97 88
31 25 24 24 19 18 19 18 19 17 17 42 41 44 65 64 62 63 66 65 64 62 66 71 76 78 79 83 91 99 100 100 100 100 100 100 100 100 96 100 99 100 100 100
24 26 23 22 24 20 18 14 22 32 46 45 62 82 86 79 70 71 72 72 75 70 72 80 84 80 82 82 88 96 100 99 100 100 100 100 100 100 98 100 95 98 99 99
27 30 34 52 47 49 54 44 52 51 51 54 75 77 74 78 81 76 76 80 82 81 82 90 95 87 84 83 86 94 98 99 100 99 99 99 100 100 100 100 100 98 96 100
54 38 40 48 55 86 84 79 80 67 59 57 68 70 81 73 78 85 88 94 98 92 94 97 99 92 87 88 88 93 99 99 99 99 100 100 100 100 100 98 100 99 98 94
47 56 51 86 52 44 67 75 65 72 71 64 69 87 89 81 87 95 97 97 94 98 98 99 98 96 92 92 94 98 100 99 99 100 100 100 100 100 100 99 98 99 100 97
50 51 85 71 50 55 92 92 74 77 81 80 93 86 93 92 94 97 96 96 99 94 98 98 96 91 91 93 97 99 99 100 100 100 100 100 100 100 99 99 98 98 98 97
43 62 83 58 56 80 89 78 74 82 88 92 87 84 90 91 93 94 95 94 94 95 91 79 75 76 77 85 88 90 93 96 98 100 100 100 100 100 99 99 99 98 98 98
83 90 80 69 82 78 72 75 88 84 88 84 85 89 92 92 92 94 95 88 73 68 68 69 72 72 72 71 65 75 81 88 91 94 96 99 97 99 99 95 96 98 97 97
79 82 76 78 69 74 71 79 77 77 86 86 91 92 93 92 92 91 92 75 67 64 64 64 64 65 62 62 56 57 67 72 75 80 88 92 95 95 97 99 95 96 97 96
88 78 71 71 72 72 78 80 87 81 75 79 84 85 76 82 87 88 85 79 73 69 65 62 62 67 64 61 58 53 55 61 64 73 77 89 96 95 96 100 100 100 100 99
85 65 75 81 75 71 78 81 76 67 69 68 70 76 75 77 75 78 84 83 81 81 80 76 72 76 75 71 66 63 59 58 66 63 63 64 72 95 97 80 88 98 98 97
84 70 78 74 72 66 75 75 64 61 59 61 63 66 70 74 73 75 75 81 87 90 89 91 92 95 98 85 82 79 73 69 66 69 70 70 71 71 71 95 90 79 87 95
66 68 79 72 77 61 58 59 61 59 58 57 56 57 58 58 57 59 62 63 72 82 88 92 94 100 100 100 87 86 86 90 84 80 78 78 79 77 76 74 73 78 93 87
64 60 60 57 54 53 54 53 54 55 54 55 55 54 54 52 51 49 45 40 43 59 75 89 92 99 100 98 92 86 84 80 83 78 77 76 74 72 70 69 69 70 71 74
61 56 55 56 53 52 51 51 53 55 54 56 55 52 50 49 50 52 57 65 61 72 77 92 89 100 100 96 89 70 71 74 71 68 66 66 65 63 63 65 64 66 73 77
69 70 63 62 56 54 52 49 50 53 56 56 53 50 46 44 49 67 81 89 91 87 86 92 94 94 93 93 86 67 65 63 64 62 62 64 63 59 60 61 62 61 74 78
56 55 55 54 56 55 54 53 55 58 61 60 79 87 88 76 77 86 91 91 88 90 88 93 92 88 85 86 83 61 61 62 59 57 60 64 65 59 63 69 67 66 69 78
64 61 63 59 58 59 60 63 72 82 91 89 87 86 89 87 85 89 88 80 72 66 88 86 83 75 70 68 76 59 64 68 62 57 67 63 66 73 75 69 70 77 77 81
80 69 66 66 66 69 76 91 90 89 93 94 91 87 85 92 92 90 84 81 83 78 85 76 67 62 58 61 64 62 69 70 64 64 68 69 73 74 78 79 84 85 83 83
90 85 84 87 91 94 92 95 96 93 93 86 80 84 84 92 86 92 89 58 84 77 75 71 62 59 57 67 59 73 71 70 68 70 74 76 75 73 77 81 77 82 91 83
91 91 92 93 92 95 97 94 94 90 88 91 90 91 88 84 84 81 52 70 68 61 70 66 66 64 70 78 72 78 73 71 72 75 75 77 76 78 78 78 78 84 81 84
92 91 91 92 90 91 93 86 83 83 84 83 84 84 80 67 62 59 65 76 67 75 67 76 76 72 77 98 84 86 84 79 87 86 84 88 80 82 84 83 81 83 85 84
90 87 88 88 89 70 63 71 73 83 88 88 92 84 80 69 80 68 69 75 73 75 82 86 85 86 88 94 98 96 91 91 90 91 87 95 95 95 94 90 85 85 86 87
83 85 87 70 48 49 54 57 61 65 68 60 66 76 84 69 76 76 80 93 93 86 89 96 90 88 97 93 93 89 91 91 94 87 94 94 86 91 97 94 94 94 92 82
76 68 54 44 46 48 50 52 55 62 59 70 74 79 86 81 78 78 86 85 85 90 93 96 97 88 88 90 86 94 92 95 97 90 90 95 96 96 99 98 99 98 98 97
56 46 45 49 50 54 56 60 63 64 70 68 69 81 80 82 89 78 81 88 88 89 95 94 93 96 94 88 91 89 91 91 97 93 94 95 95 96 97 98 99 98 98 97
Wind_Speed
2 1 1 2 6 7 8 9 6 10 11 9 12 12 10 9 9 9 9 11 12 13 13 19 21 24 26 26 28 30 30 33 33 29 27 26 29 26 22 19 11 6 13 16
8 4 6 8 9 11 11 11 13 13 11 14 13 12 9 7 7 7 9 10 11 13 15 18 21 23 23 24 25 27 29 32 32 32 32 36 31 27 28 25 24 19 13 9
7 2 4 9 6 8 10 10 7 9 9 14 13 11 12 10 8 7 9 10 12 12 14 18 20 20 22 22 23 26 28 30 31 32 33 35 32 32 34 29 28 32 29 17
1 4 5 6 8 4 7 7 8 7 10 9 6 7 9 10 8 9 10 11 12 13 16 19 18 20 20 21 24 26 28 29 30 30 30 30 30 30 29 31 33 32 34 31
3 7 7 6 6 3 3 3 6 6 7 2 6 8 9 9 9 9 9 10 10 14 16 17 18 20 19 22 25 27 27 28 29 30 29 31 31 30 33 34 31 31 34 36
5 4 4 6 6 6 3 4 5 7 7 6 6 5 6 8 9 8 10 10 12 13 15 15 19 19 21 24 25 25 26 27 28 28 29 30 30 29 29 30 29 30 33 38
6 5 5 1 6 3 4 5 6 7 8 6 2 7 8 8 8 10 11 12 11 14 13 15 16 17 19 21 23 23 24 27 29 30 29 29 27 32 27 26 27 30 32 36
4 4 3 9 1 2 3 5 4 7 9 12 12 12 10 9 9 11 12 12 12 12 14 18 19 19 19 16 18 21 23 26 29 31 28 30 30 27 29 26 26 25 25 27
4 3 4 7 7 4 3 6 6 7 8 9 10 10 9 8 9 12 13 11 11 13 16 18 20 21 21 21 18 18 19 20 23 26 30 28 30 30 29 27 26 25 25 25
6 6 6 7 7 7 7 8 8 8 9 9 10 8 9 8 8 10 12 13 14 15 17 19 19 20 20 20 18 19 19 20 20 21 23 28 28 28 30 30 24 25 25 23
4 7 8 6 7 8 9 9 10 9 8 9 9 9 9 9 9 10 11 12 13 14 15 17 18 20 22 22 21 18 19 20 20 19 20 17 22 26 25 30 29 25 21 23
2 12 5 10 9 9 9 9 8 10 9 10 10 9 10 9 10 11 12 12 13 14 15 16 17 20 21 21 21 20 18 18 20 18 18 18 17 13 20 23 25 25 24 22
4 8 12 13 11 10 10 9 8 8 9 9 9 10 10 10 10 10 11 12 12 13 13 14 15 17 18 20 19 19 19 18 17 18 18 18 17 16 15 11 19 22 24 23
14 15 11 13 8 11 12 12 12 11 9 8 9 9 10 10 10 10 10 9 9 11 12 14 15 17 17 16 16 17 15 15 15 16 16 15 15 14 14 14 15 16 16 20
10 0 12 13 14 12 14 13 10 9 9 8 8 9 9 10 10 9 8 7 9 12 13 13 14 16 17 17 14 14 15 15 14 13 13 12 13 12 12 13 14 14 15 16
9 12 16 14 13 12 11 10 9 9 9 9 10 10 10 10 10 10 11 13 12 13 14 14 15 17 16 17 17 15 14 15 15 14 14 14 13 12 12 12 12 12 14 17
13 14 13 12 11 11 10 9 9 10 10 11 11 11 10 9 9 9 10 10 10 11 12 14 15 17 17 16 16 14 14 14 14 13 13 13 13 12 13 12 12 11 10 12
11 12 12 11 11 10 9 11 12 12 11 12 11 10 9 9 9 7 9 6 5 9 12 12 13 13 14 15 15 13 13 14 13 13 13 13 13 13 12 11 10 11 10 9
12 12 11 12 12 12 13 13 13 13 12 12 11 11 9 8 7 7 7 6 6 6 10 10 11 11 12 15 14 12 12 13 13 12 13 13 12 12 11 11 11 9 10 9
12 15 16 14 13 14 14 12 14 14 11 11 12 10 8 6 6 5 4 6 5 5 6 9 10 10 12 12 13 12 13 13 13 13 12 13 13 13 12 11 10 10 10 9
13 16 16 16 14 14 14 13 13 13 11 11 10 8 7 6 4 2 4 0 4 4 4 6 9 10 10 9 11 12 12 12 12 13 13 13 14 13 13 13 12 12 11 10
14 15 15 16 15 15 13 12 11 12 11 10 9 9 8 5 2 1 2 4 2 4 3 4 6 8 9 10 10 11 11 12 12 12 12 12 13 13 13 13 13 12 12 12
14 15 16 15 16 16 13 11 11 11 11 10 9 7 2 2 1 4 1 3 1 1 4 4 6 8 10 10 11 11 12 13 13 13 12 12 12 13 12 12 12 12 12 12
16 16 16 16 16 16 14 12 12 10 9 9 7 5 1 2 2 2 2 3 4 3 5 5 6 10 11 10 11 12 13 14 15 15 16 15 13 12 12 12 12 11 11 11
16 17 16 17 15 13 15 14 13 11 9 7 5 3 1 2 3 5 4 4 3 4 7 2 6 9 9 10 11 13 13 14 15 17 17 16 17 19 15 13 12 12 12 13
17 15 16 15 12 15 14 14 10 10 8 7 5 3 2 1 2 3 3 2 3 4 4 6 7 9 10 11 13 13 14 14 14 14 15 16 16 16 15 17 13 11 11 15
15 16 15 12 13 13 12 10 10 8 5 5 6 4 2 1 1 3 3 3 4 5 6 7 8 9 10 12 13 13 13 13 14 14 14 14 14 14 15 15 15 15 15 15
Wind_Direction
320 35 11 266 222 216 241 249 264 287 301 333 16 356 27 11 15 16 18 9 9 2 1 2 1 360 2 1 359 358 6 7 4 354 0 7 13 7 14 19 39 56 202 211
226 240 260 266 254 251 261 268 267 278 283 36 354 5 59 48 34 28 23 12 4 1 2 3 2 0 360 2 0 5 12 12 4 2 11 14 14 24 38 25 40 47 67 105
235 192 264 255 278 287 278 252 288 276 358 7 24 51 40 43 40 31 30 17 8 5 5 3 1 358 4 5 6 14 15 11 8 11 15 20 18 26 36 34 44 42 34 49
188 187 227 77 62 17 341 347 4 336 358 12 64 74 60 46 43 34 29 23 15 7 10 9 1 4 10 12 20 20 18 12 13 14 19 23 26 30 29 39 47 54 43 38
194 217 105 161 52 40 15 64 49 334 335 351 143 140 72 58 53 41 28 15 28 16 14 14 9 12 16 22 26 24 18 15 14 19 23 28 30 33 35 37 37 44 53 50
196 248 237 83 36 38 54 231 25 356 325 295 191 245 81 57 50 42 34 27 23 28 21 11 24 23 26 27 25 20 19 18 21 24 28 33 33 35 39 44 44 46 48 50
201 239 104 217 345 46 245 51 23 16 352 248 159 68 89 68 52 38 35 29 30 33 23 21 21 27 32 29 27 23 24 27 27 29 30 30 34 38 38 42 45 44 46 46
224 232 200 356 137 277 25 63 69 64 59 80 98 95 83 68 51 38 30 28 34 38 34 33 28 26 26 38 29 32 32 32 33 30 30 32 32 33 36 38 42 43 45 45
8 56 89 47 76 74 50 91 82 88 79 90 88 81 75 69 58 41 26 29 43 43 39 34 31 27 24 13 29 31 35 39 37 39 34 34 37 33 32 34 35 37 39 40
182 133 119 102 92 80 84 98 95 93 89 95 100 97 91 76 65 56 40 37 39 42 39 36 29 28 26 20 24 31 33 34 35 38 41 40 39 40 39 33 33 37 33 34
79 132 124 113 111 113 108 106 103 94 100 107 107 99 96 88 78 67 57 49 48 44 41 34 30 27 24 23 24 31 34 31 33 34 34 44 48 46 46 46 42 37 36 41
132 155 76 132 133 132 126 120 123 117 114 107 106 106 100 91 82 74 65 54 52 47 41 33 30 29 24 23 26 29 32 32 29 30 30 33 32 46 45 41 45 46 46 46
116 101 110 130 127 129 128 127 124 114 114 112 109 110 106 99 90 83 70 59 53 48 39 34 32 31 24 24 26 29 30 26 29 29 27 26 26 27 22 34 34 32 38 39
122 119 122 142 137 136 135 127 129 126 126 125 123 116 112 107 98 81 72 66 62 54 43 34 30 25 17 13 25 29 30 27 29 28 25 23 22 21 22 20 18 23 27 31
145 142 136 128 135 131 136 138 137 137 133 129 123 118 111 103 93 81 67 67 69 54 41 32 28 19 15 10 11 26 32 23 18 25 25 22 20 22 21 21 20 19 16 15
133 128 136 140 140 144 148 154 144 143 141 134 123 113 107 103 96 80 60 51 49 34 25 23 20 12 12 10 2 16 19 24 12 15 14 13 14 11 14 15 18 17 19 7
148 151 148 148 152 151 155 155 149 144 142 133 131 126 118 110 98 80 69 57 51 41 29 22 13 9 11 10 6 10 8 6 6 7 7 5 359 3 6 8 9 9 30 21
163 157 158 155 153 150 144 137 138 139 135 129 113 106 91 88 92 81 64 56 49 43 31 18 13 11 10 8 8 6 5 0 359 1 356 359 353 355 1 358 359 355 357 8
156 153 152 144 142 142 141 137 133 128 124 127 123 110 106 106 101 80 58 42 29 31 19 10 12 14 13 8 6 8 5 2 358 358 357 346 352 349 348 346 346 350 348 355
129 133 129 128 131 139 134 128 133 125 127 128 122 115 115 102 91 79 75 70 50 39 18 14 15 15 11 8 7 9 5 1 358 355 356 348 349 340 340 340 338 338 339 341
117 119 123 127 120 119 134 137 135 132 131 128 127 126 116 108 115 146 232 99 52 35 27 23 21 15 11 12 6 7 4 359 356 351 349 346 341 339 335 334 330 327 333 330
129 133 134 133 131 128 130 132 135 132 131 129 134 130 121 123 133 169 54 41 56 30 12 8 12 4 3 2 356 351 348 347 341 339 338 337 336 332 332 329 324 325 321 319
132 135 134 135 137 132 129 132 137 141 137 144 145 142 169 71 345 322 10 169 294 298 333 334 334 337 344 339 331 329 328 326 323 322 317 316 321 317 320 319 323 317 317 318
136 136 134 134 135 136 137 146 146 139 143 143 141 157 215 292 265 233 323 296 279 295 299 296 314 325 325 322 323 330 327 324 320 317 314 309 298 295 302 307 306 309 311 310
139 138 141 148 151 152 147 150 145 147 147 142 145 170 231 310 310 342 317 308 284 304 310 234 353 355 333 333 334 330 327 325 327 321 317 316 311 304 295 288 294 300 302 302
151 153 156 164 155 152 153 160 155 155 159 149 148 146 135 349 341 348 4 351 311 318 331 344 347 340 337 335 329 327 328 329 333 331 329 328 329 331 336 347 329 310 310 307
156 156 158 152 154 154 159 158 148 142 149 149 134 133 124 18 37 355 2 10 355 348 342 340 336 342 336 332 329 329 329 328 333 330 326 327 326 329 333 334 332 330 326 319